Location: Unspecified
(0.0000°N, 0.0000°E)
Time: 04:57:04
(UTC+00:00)

Altair - All Passes

Search period start: 24 August 2016 00:00
Search period end: 03 September 2016 00:00
Orbit: 1502 x 1682 km, 47.2° (Epoch: 22 August)

Date Brightness Start Highest point End Pass type
(mag) Time Alt. Az. Time Alt. Az. Time Alt. Az.
24 Aug - 08:18:27 10° S 08:26:31 27° SE 08:34:26 10° E daylight
24 Aug - 10:21:20 10° SW 10:31:22 68° NW 10:41:06 10° NNE daylight
24 Aug - 12:33:23 10° WNW 12:36:31 12° NW 12:39:39 10° NNW daylight
24 Aug - 21:07:01 10° NNW 21:15:53 53° NE 21:24:58 10° SE visible
24 Aug - 23:12:32 10° WNW 23:20:25 32° SW 23:28:36 10° S night (unlit)
25 Aug - 07:53:40 10° S 08:01:17 24° SE 08:08:45 10° E daylight
25 Aug - 09:56:04 10° SW 10:06:12 76° NW 10:16:02 10° NE daylight
25 Aug - 12:06:39 10° WNW 12:11:15 14° NW 12:15:47 10° NNW daylight
25 Aug - 20:42:04 10° NNW 20:50:45 47° NE 20:59:36 10° ESE visible
25 Aug - 22:47:04 10° WNW 22:55:15 36° SW 23:03:43 10° SSE visible
26 Aug - 07:28:58 10° S 07:36:01 21° SE 07:42:57 10° E daylight
26 Aug - 09:30:50 10° SW 09:41:02 84° NW 09:50:56 10° NE daylight
26 Aug - 11:40:22 10° W 11:45:59 16° NW 11:51:31 10° N daylight
26 Aug - 20:17:08 10° NNW 20:25:37 42° NE 20:34:13 10° ESE visible
26 Aug - 22:21:40 10° WNW 22:30:05 40° SW 22:38:47 10° SSE visible
27 Aug - 07:04:22 10° S 07:10:45 18° SE 07:17:03 10° E daylight
27 Aug - 09:05:38 10° SW 09:15:51 88° SE 09:25:47 10° NE daylight
27 Aug - 11:14:18 10° W 11:20:43 19° NW 11:27:04 10° N daylight
27 Aug - 19:52:16 10° NNW 20:00:28 37° NE 20:08:48 10° ESE visible
27 Aug - 21:56:19 10° WNW 22:04:56 45° SW 22:13:49 10° SSE visible
28 Aug - 06:39:53 10° S 06:45:28 16° SE 06:50:59 10° E daylight
28 Aug - 08:40:28 10° SW 08:50:40 80° SE 09:00:37 10° NE daylight
28 Aug - 10:48:23 10° W 10:55:29 22° NW 11:02:29 10° N daylight
28 Aug - 19:27:24 10° NNW 19:35:20 33° NE 19:43:19 10° ESE visible
28 Aug - 21:31:00 10° WNW 21:39:47 51° SW 21:48:50 10° SSE visible
29 Aug - 06:15:35 10° SSE 06:20:09 14° SE 06:24:41 10° ESE daylight
29 Aug - 08:15:20 10° SSW 08:25:30 72° SE 08:35:25 10° NE daylight
29 Aug - 10:22:34 10° W 10:30:15 25° NW 10:37:49 10° N daylight
29 Aug - 19:02:36 10° N 19:10:10 29° NE 19:17:46 10° ESE visible
29 Aug - 21:05:44 10° NW 21:14:39 57° SW 21:23:49 10° SSE visible
30 Aug - 05:51:43 10° SSE 05:54:50 12° SE 05:57:56 10° ESE daylight
30 Aug - 07:50:14 10° SSW 08:00:19 65° SE 08:10:11 10° NE daylight
30 Aug - 09:56:53 10° WSW 10:05:02 28° NW 10:13:03 10° N daylight
30 Aug - 18:37:51 10° N 18:45:00 25° NE 18:52:10 10° E visible
30 Aug - 20:40:29 10° NW 20:49:31 64° SW 20:58:46 10° SSE visible
30 Aug - 22:53:59 10° SW 22:54:48 10° SW 22:55:39 10° SW visible
31 Aug - 07:25:10 10° SSW 07:35:07 58° SE 07:44:54 10° NE daylight
31 Aug - 09:31:15 10° WSW 09:39:49 32° NW 09:48:15 10° N daylight
31 Aug - 18:13:08 10° N 18:19:49 22° NE 18:26:30 10° E visible
31 Aug - 20:15:17 10° NW 20:24:23 72° SW 20:33:42 10° SSE visible
31 Aug - 22:26:17 10° WSW 22:29:31 12° SW 22:32:48 10° SSW visible
01 Sep - 07:00:07 10° SSW 07:09:56 52° SE 07:19:35 10° NE daylight
01 Sep - 09:05:41 10° WSW 09:14:37 35° NW 09:23:25 10° NNE daylight
01 Sep - 17:48:31 10° N 17:54:38 19° NE 18:00:42 10° E daylight
01 Sep - 19:50:07 10° NW 19:59:16 80° SW 20:08:36 10° SE visible
01 Sep - 21:59:50 10° WSW 22:04:16 14° SW 22:08:45 10° SSW visible
02 Sep - 06:35:07 10° SSW 06:44:44 47° SE 06:54:13 10° ENE daylight
02 Sep - 08:40:11 10° WSW 08:49:25 40° NW 08:58:31 10° NNE daylight
02 Sep - 17:24:00 10° N 17:29:25 17° NE 17:34:48 10° E daylight
02 Sep - 19:24:58 10° NW 19:34:08 89° SW 19:43:28 10° SE visible
02 Sep - 21:33:44 10° W 21:39:01 16° SW 21:44:23 10° S visible
